User: anonymous   Login
Location: Azul
(36.7830°S, 59.8500°W)
Time: 10:40:34
(UTC-03:00)
Language:

NO-84 - Orbit

View from above orbital plane
View from above orbital plane
View from above satellite
View from above satellite

Ground track
Ground track

The orbit data is extracted from the following two-line orbital elements,

1 40654U 15025D   21293.24495975  .00130927  16605-4  51522-3 0  1998
2 40654  54.9699 167.6752 0050311  44.5639 315.9322 15.84670536 26725
Epoch (UTC): 20 October 2021 05:52:44
Eccentricity: 0.0050311
inclination: 54.9699°
perigee height: 283 km
apogee height: 351 km
right ascension of ascending node: 167.6752°
argument of perigee: 44.5639°
revolutions per day: 15.84670536
mean anomaly at epoch: 315.9322°
orbit number at epoch: 2672

The dashed part of the orbit path shows where the satellite is in the earth's shadow,  

DLR